Location: Coullemont
(50.2158°N, 2.4760°E)
Time: 12:33:18
(UTC+00:00)

Daily predictions for brighter satellites

Satellite Brightness Start Highest point End
(mag) Time Altitude Azimuth Time Altitude Azimuth Time Altitude Azimuth
USA 215 3.7 16:18:19 10° ENE 16:24:36 51° N 16:30:54 10° WNW
Cosmos 2228 3.4 16:23:07 10° SSE 16:27:05 41° E 16:31:06 10° NNE
Cosmos 44 4.4 16:22:13 10° NW 16:27:20 56° WSW 16:32:34 10° SSE
Cosmos 1758 Rocket 4.2 16:24:28 10° N 16:28:23 32° ENE 16:32:15 10° SE
Intercosmos 24 4.3 16:25:03 10° N 16:28:59 38° ENE 16:32:20 10° SE
ARIANE 5 R/B 3.1 16:24:46 10° SE 16:29:19 35° ENE 16:33:58 10° N
Cosmos 2208 Rocket 4.4 16:24:42 10° NNW 16:29:36 41° ENE 16:34:29 10° SE
BREEZE M DEB (TANK) 4.4 16:10:24 10° W 16:30:01 80° SSW 16:34:37 10° ESE
Cosmos 2278 Rocket 4.3 16:27:15 10° WNW 16:30:19 15° NNW 16:33:24 10° N
Cosmos 1943 Rocket 4.3 16:27:37 10° WNW 16:30:19 14° NNW 16:33:02 10° N
ARIANE 6 FM1 Upper Stage 4.0 16:28:39 10° WNW 16:32:25 43° SW 16:36:13 10° SSE
Cosmos 2098 Rocket 4.1 16:29:33 10° SE 16:32:44 23° E 16:36:21 10° NNE
Okean 1 Rocket 4.1 16:29:31 10° SSW 16:33:41 46° WNW 16:37:51 10° N
GEOS 3 Rocket 3.9 16:30:05 10° NE 16:35:24 58° SE 16:40:42 10° SSW
Cosmos 1697 Rocket 4.4 16:35:35 10° ESE 16:37:46 12° E 16:39:57 10° ENE
USA 290 3.3 16:43:44 10° N 16:46:33 25° ENE 16:49:20 10° ESE
CBERS-1 4.2 16:44:03 10° SSE 16:49:10 82° WSW 16:54:20 10° NNW
SL-08 ROCKET BODY 4.4 16:43:59 10° N 16:49:50 58° ENE 16:55:44 10° SSE
IRS-1C 4.3 16:45:43 10° SE 16:50:52 52° ENE 16:56:02 10° N
BREEZE-M DEB (TANK) 3.1 16:49:43 10° W 16:52:20 74° N 16:59:05 12° ENE
Cosmos 1626 Rocket 3.5 16:48:32 10° N 16:52:52 64° ENE 16:57:08 10° SSE
NOSS 2-2 (C) 2.6 16:50:39 10° SW 16:53:54 70° SE 16:56:15 15° NE
SMAP 3.0 16:50:35 10° SSE 16:55:12 68° ENE 16:59:50 10° N
CZ-2D R/B 3.2 16:52:44 10° SE 16:55:40 37° ENE 16:58:37 10° N
NOSS 3-2 (C) 4.2 16:55:08 10° SSE 16:59:14 25° ESE 17:02:36 15° ENE
Thor Agena Rocket 3.6 16:54:48 10° SSE 17:00:02 89° WSW 17:05:15 10° NNW
NOSS 3-2 (A) 3.3 16:55:33 10° SSW 17:00:27 60° SE 17:05:38 13° NE
Landsat 7 3.8 16:56:47 10° SSE 17:01:21 60° ENE 17:05:57 10° N
Cosmos 2151 3.3 16:57:35 10° N 17:01:32 40° ENE 17:05:27 10° SE
Cosmos 1634 Rocket 4.0 16:58:03 10° S 17:04:15 86° W 17:10:28 10° N
BlueWalker 3 2.2 17:00:41 10° WNW 17:04:17 64° SSW 17:07:52 10° SE
Cosmos 1743 2.4 17:03:04 10° N 17:06:16 48° ENE 17:09:25 10° SSE
ATLAS CENTAUR R/B 0.6 17:03:54 10° NW 17:07:11 69° NE 17:10:20 10° SE
UNK 3.7 17:03:50 10° NNE 17:08:26 68° ESE 17:12:58 10° S
Okean 1-7 Rocket 4.0 17:05:26 10° N 17:09:33 37° ENE 17:13:37 10° SE
Cosmos 1484 Rocket 4.2 17:06:24 10° SSW 17:09:42 38° W 17:13:01 10° NNW
Cosmos 2297 Rocket 2.1 17:04:38 10° NNW 17:10:19 68° ENE 17:15:58 10° SE
Lacrosse 4 Rocket 2.2 17:06:36 10° WSW 17:10:32 44° NW 17:14:13 11° NNE
Cosmos 1544 Rocket 3.5 17:07:06 10° S 17:11:27 68° E 17:15:52 10° NNE
Cosmos 1656 3.8 17:07:55 10° SSW 17:13:26 61° ESE 17:18:29 13° NE
Cosmos 1461 4.2 17:11:48 10° SSE 17:14:39 20° ESE 17:15:27 18° E
IRIDIUM 104 4.3 17:11:46 10° N 17:16:58 60° E 17:22:07 10° SSE
Meteor 1-28 Rocket 3.6 17:14:00 10° N 17:17:18 53° WNW 17:20:33 10° SSW
Cosmos 2279 Rocket 4.0 17:15:31 10° S 17:21:43 90° ESE 17:28:00 10° N
Cosmos 2219 4.3 17:19:02 10° NNW 17:23:37 24° NE 17:25:09 21° ENE
SKYMED 2 4.3 17:23:07 22° NE 17:25:03 31° E 17:28:55 10° SSE
IRIDIUM 114 4.2 17:20:53 10° N 17:26:08 71° E 17:31:20 10° S
Spot 4 Rocket 4.4 17:21:53 10° SE 17:26:37 40° ENE 17:31:22 10° N
Lacrosse 5 rocket 1.4 17:23:00 10° WSW 17:26:41 55° NNW 17:28:28 27° NE
SAR-Lupe-4 3.7 17:24:53 10° S 17:28:26 75° WSW 17:32:01 10° NNW
COSMO-SKYMED 1 3.7 17:29:12 22° ESE 17:29:12 22° ESE 17:31:52 10° SE
PSLV R/B 4.1 17:28:53 25° E 17:30:05 30° ENE 17:33:37 10° N
Cosmos 1602 Rocket 3.4 17:26:17 10° N 17:30:44 83° E 17:35:05 10° SSE
MOS 1 Rocket 3.3 17:26:11 10° SSE 17:30:59 79° ENE 17:36:09 10° N
CZ-4 R/B 4.4 17:27:36 10° SSE 17:31:26 51° ENE 17:35:17 10° N
Cosmos 2180 Rocket 4.4 17:28:29 10° S 17:34:36 81° E 17:40:47 10° NNE
IRIDIUM 103 4.2 17:30:03 10° N 17:35:19 84° E 17:40:32 10° S
CZ-4C R/B 2.8 17:28:35 10° NW 17:35:20 77° NE 17:43:50 10° SE
Cosmos 2084 Rocket 3.3 17:31:11 10° NW 17:35:23 63° NE 17:37:51 23° ESE
SL-19 R/B 4.5 17:30:26 10° SE 17:35:27 43° ENE 17:40:44 10° N
SAR-Lupe-1 4.3 17:32:09 10° S 17:35:44 72° WSW 17:39:21 10° NNW
Cosmos 724 4.3 17:30:03 10° NW 17:36:10 88° SW 17:42:05 10° SE
Cosmos 1777 Rocket 4.0 17:31:44 10° S 17:36:53 59° ESE 17:40:21 21° NE
Cosmos 1980 Rocket 3.8 17:35:27 10° SE 17:37:44 16° ESE 17:37:44 16° ESE
CZ-2D R/B 3.6 17:35:08 10° SE 17:39:12 50° ENE 17:43:16 10° N
Cosmos 1867 3.5 17:33:57 10° NW 17:39:25 65° NE 17:44:00 14° SE
Resurs 01 Rocket 3.9 17:42:49 11° NNE 17:42:49 11° NNE 17:42:59 10° NNE
IRS-P3 4.1 17:35:36 10° SSE 17:40:56 88° WSW 17:46:18 10° NNW
Cosmos 1782 3.2 17:39:04 10° SSW 17:42:35 54° WNW 17:46:09 10° N
Cosmos 1900 4.3 17:38:06 10° NW 17:43:11 70° NE 17:47:17 15° SE
YAOGAN 1 2.7 17:40:25 10° SE 17:44:29 47° ENE 17:48:36 10° N
Cosmos 1844 Rocket 4.4 17:41:56 10° N 17:44:55 15° NNE 17:44:55 15° NNE
Cosmos 1486 Rocket 4.0 17:46:10 10° SSW 17:51:23 86° WNW 17:55:12 19° NNE
Cosmos 2263 Rocket 2.5 17:46:39 10° NNW 17:52:03 42° NE 17:53:46 34° E
Cosmos 1953 Rocket 3.8 17:48:29 10° N 17:52:45 44° ENE 17:53:35 39° ESE
NOSS 2-2 (D) 3.0 17:51:09 10° SW 17:54:21 56° NW 17:54:45 50° N
CENTAUR R/B 3.4 17:50:11 10° WSW 17:55:58 45° NNW 18:00:51 20° NE
Cosmos 2266 Rocket 4.1 17:50:32 10° NNW 17:56:44 76° W 18:02:48 10° S
Cosmos 2360 4.2 17:51:28 10° SSW 17:57:12 89° WNW 18:00:53 23° NNE
SL-16 R/B 3.9 17:52:03 10° N 17:57:42 37° WNW 18:03:18 10° SW
Cosmos 1933 3.0 17:55:10 10° S 17:58:59 75° E 17:59:50 51° NNE
USA 81 4.2 17:54:22 10° N 17:59:28 46° ENE 18:04:30 10° SSE
Cosmos 1607 4.3 17:53:30 10° NW 17:59:41 68° SW 18:05:54 10° SSE
Cosmos 2227 Rocket 2.1 17:55:36 10° NNW 18:01:16 74° ENE 18:06:42 11° SE
NOSS 2-2 (E) 3.0 18:00:27 10° SW 18:03:39 57° NW 18:03:40 57° NW
Cosmos 1825 Rocket 3.4 18:00:41 10° N 18:05:04 87° W 18:09:24 10° S
USA 215 3.4 18:04:26 35° ENE 18:07:06 58° NNE 18:13:30 10° WNW
Cosmos 2369 Rocket 4.4 18:03:44 10° WNW 18:07:12 16° NNW 18:10:41 10° N
ARIANE 5 R/B 4.0 18:03:39 10° SSW 18:08:20 38° W 18:13:06 10° NNW
Cosmos 2098 Rocket 4.3 18:06:23 10° SW 18:10:07 39° WNW 18:14:31 10° N
NOAA 6 3.9 18:05:06 10° SSE 18:10:08 62° ENE 18:15:11 10° N
BREEZE M DEB (TANK) 4.1 18:08:20 10° SW 18:09:12 19° SW 18:09:12 19° SW
USA 281 4.3 18:11:45 25° NNE 18:11:45 25° NNE 18:16:21 10° NNW
SPOT 1/Viking Rocket 3.7 18:06:05 10° S 18:11:17 73° WSW 18:16:31 10° NNW
IRAS Rocket 4.1 18:09:11 10° SSE 18:14:41 82° ENE 18:20:11 10° NNW
BREEZE-M DEB (TANK) 4.0 18:13:10 10° SW 18:13:35 16° SW 18:13:35 16° SW
Cosmos 990 Rocket 3.8 18:14:26 10° SSW 18:19:30 68° ESE 18:20:06 62° ENE
Cosmos 1697 Rocket 2.5 18:15:07 10° SSW 18:20:40 72° ESE 18:21:56 53° NE
Gbstr 26 Del rocket 4.3 18:23:16 10° SSW 18:25:30 26° S 18:25:30 26° S
Cosmos 1244 Rocket 4.3 18:29:57 10° N 18:36:16 71° ENE 18:42:28 10° SSE
Cosmos 1606 Rocket 4.5 18:35:54 10° SSW 18:40:09 48° WNW 18:41:48 32° NNW
ATLAS CENTAUR R/B 4.0 18:40:17 10° W 18:41:29 12° WSW 18:42:42 10° SW
Cosmos 1076 Rocket 4.2 18:41:05 10° NNW 18:45:16 53° W 18:49:27 10° S
Cosmos 1538 Rocket 3.9 18:40:36 10° NNW 18:45:41 83° NW 18:45:41 83° NW
Cosmos 2082 4.3 18:40:21 10° NNW 18:44:30 44° N 18:44:30 44° N
Cosmos 1655 Rocket 4.5 18:41:40 10° NNW 18:47:48 60° W 18:53:52 10° S
NOSS 3-2 (C) 3.3 18:44:11 10° SW 18:49:20 68° NW 18:50:02 62° N
Lacrosse 4 Rocket 4.0 18:47:58 10° NW 18:49:22 11° NNW 18:49:43 11° NNW
Cosmos 1461 4.2 18:47:12 10° SW 18:49:37 34° WSW 18:49:37 34° WSW
NOSS 3-2 (A) 4.3 18:46:30 10° W 18:51:32 39° NNW 18:52:59 34° N
Cosmos 2297 Rocket 4.4 18:49:27 10° NW 18:53:50 23° WSW 18:58:12 10° SSW
SL-08 R/B 4.4 18:51:40 10° N 18:57:43 80° NNE 18:57:43 80° NNE
Meteor 2-10 4.4 18:55:54 10° NNW 19:01:09 65° W 19:02:07 54° SSW
COSMO-SKYMED 1 4.2 19:05:31 29° WSW 19:05:31 29° WSW 19:07:56 10° SW
Lacrosse 5 rocket 3.8 19:01:01 10° WNW 19:02:04 16° NW 19:02:04 16° NW
Cosmos 2219 3.7 19:02:44 10° NNW 19:07:05 54° NNW 19:07:05 54° NNW
Cosmos 1980 Rocket 3.5 19:16:38 10° SSW 19:19:32 32° SSW 19:19:32 32° SSW
CZ-4C R/B 4.3 19:17:06 10° NW 19:23:33 36° WSW 19:31:10 10° S
Cosmos 2263 Rocket 3.3 19:30:41 10° NW 19:35:29 40° W 19:35:29 40° W
Cosmos 2227 Rocket 4.4 19:40:35 10° NW 19:44:42 21° W 19:48:42 10° SSW
CENTAUR R/B 4.1 19:42:32 10° WNW 19:47:57 30° N 19:47:57 30° N
USA 215 3.9 19:51:47 52° WNW 19:51:47 52° WNW 19:56:35 10° WNW
